Time,TemperatureF,DewpointF,PressureIn,WindDirection,WindDirectionDegrees,WindSpeedMPH,WindSpeedGustMPH,Humidity,HourlyPrecipIn,Conditions,Clouds,dailyrainin,SoftwareType,DateUTC
2013-03-22 00:02:00,30.0,20.0,-100.00,NNW,345,0.0,2.0,65,0.00,,,-99.99,,2013-03-22 06:02:00,
2013-03-22 00:12:00,30.0,20.0,-100.00,WNW,295,1.0,1.0,65,0.00,,,-99.99,,2013-03-22 06:12:00,
2013-03-22 00:32:00,30.0,20.0,-100.00,NE,55,1.0,1.0,65,0.00,,,-99.99,,2013-03-22 06:32:00,
2013-03-22 00:42:00,30.0,20.0,-100.00,NNW,340,0.0,3.0,65,0.00,,,-99.99,,2013-03-22 06:42:00,
2013-03-22 00:51:00,30.0,20.0,-100.00,SE,135,0.0,2.0,65,0.00,,,-99.99,,2013-03-22 06:51:00,
2013-03-22 01:02:00,30.0,20.0,-100.00,North,0,2.0,3.0,66,0.00,,,-99.99,,2013-03-22 07:02:00,
2013-03-22 01:12:00,30.0,20.0,-100.00,SW,215,0.0,4.0,66,0.00,,,-99.99,,2013-03-22 07:12:00,
2013-03-22 01:22:00,29.0,19.0,-100.00,East,85,0.0,1.0,66,0.00,,,-99.99,,2013-03-22 07:22:00,
2013-03-22 01:32:00,29.0,19.0,-100.00,NE,50,0.0,0.0,67,0.00,,,-99.99,,2013-03-22 07:32:00,
2013-03-22 01:42:00,29.0,19.0,-100.00,NE,55,0.0,1.0,68,0.00,,,-99.99,,2013-03-22 07:42:00,
2013-03-22 01:52:00,29.0,20.0,-100.00,East,80,0.0,2.0,69,0.00,,,-99.99,,2013-03-22 07:52:00,
2013-03-22 02:02:00,28.0,20.0,-100.00,North,0,0.0,3.0,70,0.00,,,-99.99,,2013-03-22 08:02:00,
2013-03-22 02:12:00,28.0,20.0,-100.00,NE,45,1.0,1.0,71,0.00,,,-99.99,,2013-03-22 08:12:00,
2013-03-22 02:22:00,28.0,20.0,-100.00,ESE,110,0.0,1.0,72,0.00,,,-99.99,,2013-03-22 08:22:00,
2013-03-22 02:32:00,28.0,20.0,-100.00,ESE,110,0.0,0.0,72,0.00,,,-99.99,,2013-03-22 08:32:00,
2013-03-22 02:42:00,27.0,20.0,-100.00,ESE,110,0.0,0.0,72,0.00,,,-99.99,,2013-03-22 08:42:00,
2013-03-22 02:52:00,28.0,20.0,-100.00,NW,315,0.0,2.0,74,0.00,,,-99.99,,2013-03-22 08:52:00,
2013-03-22 03:02:00,27.0,20.0,-100.00,West,260,0.0,1.0,75,0.00,,,-99.99,,2013-03-22 09:02:00,
2013-03-22 03:12:00,28.0,21.0,-100.00,SW,230,0.0,1.0,76,0.00,,,-99.99,,2013-03-22 09:12:00,
2013-03-22 03:21:00,28.0,21.0,-100.00,NE,50,1.0,2.0,76,0.00,,,-99.99,,2013-03-22 09:21:00,
2013-03-22 03:32:00,28.0,21.0,-100.00,ENE,75,1.0,2.0,77,0.00,,,-99.99,,2013-03-22 09:32:00,
2013-03-22 03:42:00,27.0,21.0,-100.00,ENE,75,0.0,1.0,77,0.00,,,-99.99,,2013-03-22 09:42:00,
2013-03-22 03:53:00,28.0,22.0,-100.00,NE,40,0.0,1.0,78,0.00,,,-99.99,,2013-03-22 09:53:00,
2013-03-22 04:02:00,28.0,22.0,-100.00,NNW,330,1.0,2.0,78,0.00,,,-99.99,,2013-03-22 10:02:00,
2013-03-22 04:12:00,28.0,22.0,-100.00,NE,40,0.0,1.0,78,0.00,,,-99.99,,2013-03-22 10:12:00,
2013-03-22 04:22:00,28.0,22.0,-100.00,NW,320,2.0,3.0,78,0.00,,,-99.99,,2013-03-22 10:22:00,
2013-03-22 04:32:00,28.0,22.0,-100.00,East,90,1.0,2.0,78,0.00,,,-99.99,,2013-03-22 10:32:00,
2013-03-22 04:42:00,28.0,22.0,-100.00,NW,325,1.0,5.0,78,0.00,,,-99.99,,2013-03-22 10:42:00,
2013-03-22 04:52:00,28.0,22.0,-100.00,SSE,165,1.0,1.0,78,0.00,,,-99.99,,2013-03-22 10:52:00,
2013-03-22 05:02:00,28.0,22.0,-100.00,NNW,330,1.0,2.0,78,0.00,,,-99.99,,2013-03-22 11:02:00,
2013-03-22 05:12:00,28.0,22.0,-100.00,NNW,335,0.0,4.0,78,0.00,,,-99.99,,2013-03-22 11:12:00,
2013-03-22 05:32:00,28.0,22.0,-100.00,NW,305,0.0,3.0,78,0.00,,,-99.99,,2013-03-22 11:32:00,
2013-03-22 05:42:00,28.0,22.0,-100.00,SSW,205,0.0,0.0,78,0.00,,,-99.99,,2013-03-22 11:42:00,
2013-03-22 05:52:00,28.0,22.0,-100.00,South,170,0.0,1.0,78,0.00,,,-99.99,,2013-03-22 11:52:00,
2013-03-22 06:01:00,28.0,22.0,-100.00,South,180,0.0,1.0,78,0.00,,,-99.99,,2013-03-22 12:01:00,
2013-03-22 06:12:00,27.0,22.0,-100.00,SW,220,1.0,2.0,78,0.00,,,-99.99,,2013-03-22 12:12:00,
2013-03-22 06:21:00,27.0,22.0,-100.00,SE,125,1.0,1.0,79,0.00,,,-99.99,,2013-03-22 12:21:00,
2013-03-22 06:32:00,27.0,22.0,-100.00,ESE,105,0.0,2.0,79,0.00,,,-99.99,,2013-03-22 12:32:00,
2013-03-22 06:42:00,27.0,22.0,-100.00,North,0,2.0,4.0,80,0.00,,,-99.99,,2013-03-22 12:42:00,
2013-03-22 06:51:00,27.0,22.0,-100.00,South,175,0.0,5.0,80,0.00,,,-99.99,,2013-03-22 12:51:00,
2013-03-22 07:02:00,26.0,21.0,-100.00,South,170,0.0,1.0,80,0.00,,,-99.99,,2013-03-22 13:02:00,
2013-03-22 07:11:00,26.0,21.0,-100.00,South,170,0.0,1.0,80,0.00,,,-99.99,,2013-03-22 13:11:00,
2013-03-22 07:21:00,26.0,21.0,-100.00,South,170,0.0,1.0,80,0.00,,,-99.99,,2013-03-22 13:21:00,
2013-03-22 07:32:00,26.0,21.0,-100.00,South,175,0.0,1.0,81,0.00,,,-99.99,,2013-03-22 13:32:00,
2013-03-22 07:42:00,26.0,21.0,-100.00,East,85,0.0,5.0,82,0.00,,,-99.99,,2013-03-22 13:42:00,
2013-03-22 07:52:00,25.0,21.0,-100.00,East,85,0.0,0.0,82,0.00,,,-99.99,,2013-03-22 13:52:00,
2013-03-22 08:02:00,26.0,21.0,-100.00,South,170,0.0,6.0,82,0.00,,,-99.99,,2013-03-22 14:02:00,
2013-03-22 08:11:00,26.0,22.0,-100.00,SSE,160,0.0,6.0,83,0.00,,,-99.99,,2013-03-22 14:11:00,
2013-03-22 08:21:00,26.0,22.0,-100.00,East,85,0.0,1.0,83,0.00,,,-99.99,,2013-03-22 14:21:00,
2013-03-22 08:32:00,27.0,23.0,-100.00,SSW,200,0.0,2.0,82,0.00,,,-99.99,,2013-03-22 14:32:00,
2013-03-22 08:42:00,28.0,23.0,-100.00,SSE,165,2.0,2.0,81,0.00,,,-99.99,,2013-03-22 14:42:00,
2013-03-22 08:51:00,30.0,24.0,-100.00,WSW,240,1.0,4.0,79,0.00,,,-99.99,,2013-03-22 14:51:00,
2013-03-22 09:02:00,30.0,23.0,-100.00,SSE,160,2.0,4.0,74,0.00,,,-99.99,,2013-03-22 15:02:00,
2013-03-22 09:12:00,31.0,23.0,-100.00,SSW,195,1.0,3.0,71,0.00,,,-99.99,,2013-03-22 15:12:00,
2013-03-22 09:21:00,32.0,23.0,-100.00,South,180,1.0,3.0,67,0.00,,,-99.99,,2013-03-22 15:21:00,
2013-03-22 09:32:00,33.0,23.0,-100.00,SSE,165,2.0,2.0,65,0.00,,,-99.99,,2013-03-22 15:32:00,
2013-03-22 09:42:00,34.0,23.0,-100.00,South,175,2.0,3.0,64,0.00,,,-99.99,,2013-03-22 15:42:00,
2013-03-22 09:52:00,35.0,23.0,-100.00,South,190,2.0,4.0,61,0.00,,,-99.99,,2013-03-22 15:52:00,
2013-03-22 10:02:00,35.0,22.0,-100.00,South,175,2.0,3.0,59,0.00,,,-99.99,,2013-03-22 16:02:00,
2013-03-22 10:13:00,36.0,22.0,-100.00,SSW,200,1.0,2.0,58,0.00,,,-99.99,,2013-03-22 16:13:00,
2013-03-22 10:22:00,36.0,21.0,-100.00,South,180,2.0,3.0,54,0.00,,,-99.99,,2013-03-22 16:22:00,
2013-03-22 10:32:00,37.0,21.0,-100.00,SSE,160,2.0,3.0,52,0.00,,,-99.99,,2013-03-22 16:32:00,
2013-03-22 10:42:00,37.0,21.0,-100.00,South,175,4.0,6.0,50,0.00,,,-99.99,,2013-03-22 16:42:00,
2013-03-22 10:52:00,38.0,20.0,-100.00,SSE,160,2.0,6.0,48,0.00,,,-99.99,,2013-03-22 16:52:00,
2013-03-22 11:12:00,41.0,20.0,-100.00,SSE,160,2.0,6.0,43,0.00,,,-99.99,,2013-03-22 17:12:00,
2013-03-22 11:22:00,41.0,19.0,-100.00,SE,145,3.0,9.0,40,0.00,,,-99.99,,2013-03-22 17:22:00,
2013-03-22 11:32:00,42.0,19.0,-100.00,SSE,160,3.0,7.0,38,0.00,,,-99.99,,2013-03-22 17:32:00,
2013-03-22 11:42:00,43.0,16.0,-100.00,South,170,4.0,9.0,33,0.00,,,-99.99,,2013-03-22 17:42:00,
2013-03-22 11:52:00,43.0,15.0,-100.00,ESE,120,4.0,13.0,30,0.00,,,-99.99,,2013-03-22 17:52:00,
2013-03-22 12:02:00,43.0,13.0,-100.00,SSE,160,7.0,16.0,29,0.00,,,-99.99,,2013-03-22 18:02:00,
2013-03-22 12:12:00,42.0,11.0,-100.00,SSE,155,7.0,21.0,27,0.00,,,-99.99,,2013-03-22 18:12:00,
2013-03-22 12:21:00,43.0,10.0,-100.00,South,175,4.0,16.0,25,0.00,,,-99.99,,2013-03-22 18:21:00,
2013-03-22 12:32:00,44.0,11.0,-100.00,SE,140,4.0,12.0,25,0.00,,,-99.99,,2013-03-22 18:32:00,
2013-03-22 12:42:00,44.0,9.0,-100.00,SSE,150,9.0,14.0,23,0.00,,,-99.99,,2013-03-22 18:42:00,
2013-03-22 12:52:00,45.0,10.0,-100.00,SE,135,2.0,11.0,23,0.00,,,-99.99,,2013-03-22 18:52:00,
2013-03-22 13:02:00,45.0,10.0,-100.00,SE,130,6.0,13.0,23,0.00,,,-99.99,,2013-03-22 19:02:00,
2013-03-22 13:12:00,45.0,10.0,-100.00,SSW,210,4.0,9.0,23,0.00,,,-99.99,,2013-03-22 19:12:00,
2013-03-22 13:21:00,46.0,11.0,-100.00,SSE,150,6.0,12.0,23,0.00,,,-99.99,,2013-03-22 19:21:00,
2013-03-22 13:32:00,46.0,11.0,-100.00,SSE,160,6.0,11.0,23,0.00,,,-99.99,,2013-03-22 19:32:00,
2013-03-22 13:42:00,46.0,11.0,-100.00,SE,135,2.0,14.0,23,0.00,,,-99.99,,2013-03-22 19:42:00,
2013-03-22 13:51:00,45.0,10.0,-100.00,SSE,155,6.0,19.0,23,0.00,,,-99.99,,2013-03-22 19:51:00,
2013-03-22 14:01:00,46.0,11.0,-100.00,SE,135,6.0,18.0,23,0.00,,,-99.99,,2013-03-22 20:01:00,
2013-03-22 14:12:00,46.0,10.0,-100.00,SSE,150,9.0,16.0,23,0.00,,,-99.99,,2013-03-22 20:12:00,
2013-03-22 14:22:00,46.0,11.0,-100.00,SE,145,6.0,19.0,23,0.00,,,-99.99,,2013-03-22 20:22:00,
2013-03-22 14:32:00,46.0,11.0,-100.00,ESE,115,7.0,16.0,23,0.00,,,-99.99,,2013-03-22 20:32:00,
2013-03-22 14:42:00,47.0,11.0,-100.00,ESE,120,10.0,21.0,22,0.00,,,-99.99,,2013-03-22 20:42:00,
2013-03-22 14:51:00,47.0,10.0,-100.00,North,0,3.0,17.0,21,0.00,,,-99.99,,2013-03-22 20:51:00,
2013-03-22 15:02:00,46.0,8.0,-100.00,SE,135,7.0,19.0,21,0.00,,,-99.99,,2013-03-22 21:02:00,
2013-03-22 15:12:00,45.0,6.0,-100.00,SSE,150,7.0,21.0,20,0.00,,,-99.99,,2013-03-22 21:12:00,
2013-03-22 15:21:00,45.0,7.0,-100.00,ESE,120,8.0,19.0,20,0.00,,,-99.99,,2013-03-22 21:21:00,
2013-03-22 15:32:00,44.0,6.0,-100.00,SE,130,11.0,24.0,19,0.00,,,-99.99,,2013-03-22 21:32:00,
2013-03-22 15:42:00,45.0,6.0,-100.00,SE,145,6.0,22.0,19,0.00,,,-99.99,,2013-03-22 21:42:00,
2013-03-22 15:52:00,45.0,6.0,-100.00,SE,130,7.0,16.0,19,0.00,,,-99.99,,2013-03-22 21:52:00,
2013-03-22 16:02:00,45.0,6.0,-100.00,SSE,155,4.0,19.0,19,0.00,,,-99.99,,2013-03-22 22:02:00,
2013-03-22 16:12:00,45.0,5.0,-100.00,SE,130,7.0,21.0,19,0.00,,,-99.99,,2013-03-22 22:12:00,
2013-03-22 16:22:00,46.0,7.0,-100.00,SSE,155,7.0,18.0,19,0.00,,,-99.99,,2013-03-22 22:22:00,
2013-03-22 16:32:00,45.0,6.0,-100.00,SSE,155,8.0,17.0,20,0.00,,,-99.99,,2013-03-22 22:32:00,
2013-03-22 16:42:00,44.0,6.0,-100.00,SSE,165,6.0,16.0,20,0.00,,,-99.99,,2013-03-22 22:42:00,
2013-03-22 16:52:00,44.0,8.0,-100.00,South,175,4.0,15.0,21,0.00,,,-99.99,,2013-03-22 22:52:00,
2013-03-22 17:02:00,44.0,8.0,-100.00,South,175,6.0,12.0,22,0.00,,,-99.99,,2013-03-22 23:02:00,
2013-03-22 17:12:00,44.0,8.0,-100.00,SE,135,4.0,14.0,22,0.00,,,-99.99,,2013-03-22 23:12:00,
2013-03-22 17:22:00,43.0,8.0,-100.00,South,185,3.0,13.0,23,0.00,,,-99.99,,2013-03-22 23:22:00,
2013-03-22 17:32:00,43.0,8.0,-100.00,SSE,160,9.0,15.0,23,0.00,,,-99.99,,2013-03-22 23:32:00,
2013-03-22 17:42:00,42.0,8.0,-100.00,SE,135,6.0,20.0,24,0.00,,,-99.99,,2013-03-22 23:42:00,
2013-03-22 17:52:00,42.0,8.0,-100.00,ESE,110,4.0,13.0,25,0.00,,,-99.99,,2013-03-22 23:52:00,
2013-03-22 18:02:00,41.0,9.0,-100.00,ESE,110,4.0,13.0,25,0.00,,,-99.99,,2013-03-23 00:02:00,
2013-03-22 18:12:00,41.0,9.0,-100.00,North,0,4.0,12.0,26,0.00,,,-99.99,,2013-03-23 00:12:00,
2013-03-22 18:22:00,41.0,10.0,-100.00,SE,140,4.0,11.0,27,0.00,,,-99.99,,2013-03-23 00:22:00,
2013-03-22 18:32:00,41.0,10.0,-100.00,ENE,65,2.0,10.0,27,0.00,,,-99.99,,2013-03-23 00:32:00,
2013-03-22 18:42:00,40.0,10.0,-100.00,ESE,115,3.0,11.0,28,0.00,,,-99.99,,2013-03-23 00:42:00,
2013-03-22 18:51:00,39.0,10.0,-100.00,NNE,15,4.0,10.0,29,0.00,,,-99.99,,2013-03-23 00:51:00,
2013-03-22 19:03:00,39.0,10.0,-100.00,SE,135,7.0,14.0,29,0.00,,,-99.99,,2013-03-23 01:03:00,
2013-03-22 19:11:00,39.0,10.0,-100.00,North,5,4.0,10.0,29,0.00,,,-99.99,,2013-03-23 01:11:00,
2013-03-22 19:22:00,39.0,10.0,-100.00,NNE,20,2.0,9.0,29,0.00,,,-99.99,,2013-03-23 01:22:00,
2013-03-22 19:31:00,38.0,9.0,-100.00,SSE,165,3.0,9.0,29,0.00,,,-99.99,,2013-03-23 01:31:00,
2013-03-22 19:42:00,38.0,9.0,-100.00,SE,145,2.0,9.0,29,0.00,,,-99.99,,2013-03-23 01:42:00,
2013-03-22 19:52:00,38.0,9.0,-100.00,SE,140,4.0,11.0,29,0.00,,,-99.99,,2013-03-23 01:52:00,
2013-03-22 20:02:00,37.0,9.0,-100.00,SSE,165,4.0,14.0,30,0.00,,,-99.99,,2013-03-23 02:02:00,
2013-03-22 20:12:00,37.0,10.0,-100.00,SE,135,4.0,16.0,31,0.00,,,-99.99,,2013-03-23 02:12:00,
2013-03-22 20:22:00,37.0,10.0,-100.00,NE,50,4.0,9.0,31,0.00,,,-99.99,,2013-03-23 02:22:00,
2013-03-22 20:31:00,37.0,9.0,-100.00,SE,125,5.0,9.0,31,0.00,,,-99.99,,2013-03-23 02:31:00,
2013-03-22 20:42:00,36.0,9.0,-100.00,South,170,2.0,11.0,32,0.00,,,-99.99,,2013-03-23 02:42:00,
2013-03-22 20:51:00,36.0,10.0,-100.00,SE,130,4.0,9.0,32,0.00,,,-99.99,,2013-03-23 02:51:00,
2013-03-22 21:02:00,36.0,9.0,-100.00,SE,140,3.0,9.0,32,0.00,,,-99.99,,2013-03-23 03:02:00,
2013-03-22 21:11:00,35.0,9.0,-100.00,South,175,3.0,14.0,32,0.00,,,-99.99,,2013-03-23 03:11:00,
2013-03-22 21:21:00,35.0,9.0,-100.00,ENE,60,4.0,12.0,32,0.00,,,-99.99,,2013-03-23 03:21:00,
2013-03-22 21:33:00,35.0,9.0,-100.00,WNW,285,2.0,11.0,32,0.00,,,-99.99,,2013-03-23 03:33:00,
2013-03-22 21:42:00,34.0,9.0,-100.00,SSE,155,6.0,11.0,33,0.00,,,-99.99,,2013-03-23 03:42:00,
2013-03-22 21:52:00,34.0,9.0,-100.00,SSE,160,6.0,21.0,35,0.00,,,-99.99,,2013-03-23 03:52:00,
2013-03-22 22:02:00,34.0,10.0,-100.00,SE,140,5.0,21.0,37,0.00,,,-99.99,,2013-03-23 04:02:00,
2013-03-22 22:12:00,33.0,11.0,-100.00,SSE,155,7.0,15.0,40,0.00,,,-99.99,,2013-03-23 04:12:00,
2013-03-22 22:22:00,32.0,12.0,-100.00,ESE,115,2.0,10.0,42,0.00,,,-99.99,,2013-03-23 04:22:00,
2013-03-22 22:32:00,32.0,12.0,-100.00,ESE,105,2.0,8.0,43,0.00,,,-99.99,,2013-03-23 04:32:00,
2013-03-22 22:42:00,32.0,13.0,-100.00,ESE,105,3.0,7.0,43,0.00,,,-99.99,,2013-03-23 04:42:00,
2013-03-22 22:53:00,31.0,12.0,-100.00,South,170,1.0,5.0,43,0.00,,,-99.99,,2013-03-23 04:53:00,
2013-03-22 23:02:00,32.0,13.0,-100.00,West,275,1.0,4.0,44,0.00,,,-99.99,,2013-03-23 05:02:00,
2013-03-22 23:12:00,31.0,13.0,-100.00,SW,230,1.0,2.0,45,0.00,,,-99.99,,2013-03-23 05:12:00,
2013-03-22 23:21:00,31.0,13.0,-100.00,SW,230,1.0,4.0,45,0.00,,,-99.99,,2013-03-23 05:21:00,
2013-03-22 23:32:00,31.0,13.0,-100.00,SSE,150,0.0,2.0,46,0.00,,,-99.99,,2013-03-23 05:32:00,
2013-03-22 23:42:00,31.0,13.0,-100.00,SW,220,2.0,3.0,47,0.00,,,-99.99,,2013-03-23 05:42:00,
2013-03-22 23:52:00,31.0,13.0,-100.00,SSW,210,0.0,2.0,48,0.00,,,-99.99,,2013-03-23 05:52:00,